Retour au catalogue

DELTA 1 DEB

ActifLEO
NORAD 7198·DEBRIS·🇺🇸 United States

Lancé Nov 6, 1973 depuis Vandenberg Space Force Base

Loading…

Prochains Passages (prochaines 24 heures)

TLE

FraisSource: Space-Track

Époque: Sep 14, 2026, 09:55 UTC

1 07198U 73086FG  26257.41330520  .00000625  00000-0  24810-2 0  9999
2 07198 102.3313 223.6209 0145165 347.1431 166.8193 12.89946168470222

Suivez DELTA 1 DEB en temps réel avec AllMySat

Download on the App Store